User: anonymous   Login
Location: Unspecified
(0.0000°N, 0.0000°E)
Time: 23:43:25
(UTC+02:00)
Language:

GPS 2-05 Rocket1 - Orbit

View from above orbital plane
View from above orbital plane
View from above satellite
View from above satellite

Ground track
Ground track

The orbit data is extracted from the following two-line orbital elements,

1 20362U 89097B   14295.13425458  .00021441  00000-0  71395-3 0  5502
2 20362 035.6219 329.6261 0105752 153.0110 246.0609 15.24960278350268
Epoch (UTC): 22 October 2014 03:13:19
Eccentricity: 0.0105752
inclination: 35.6219°
perigee height: 418 km
apogee height: 563 km
right ascension of ascending node: 329.6261°
argument of perigee: 153.0110°
revolutions per day: 15.24960278
mean anomaly at epoch: 246.0609°
orbit number at epoch: 35026

The dashed part of the orbit path shows where the satellite is in the earth's shadow,  

DLR